MOLNIYA 1-49

Last updated on Aug. 6, 2020, 5:30 a.m. UTC

1 12156U 81009A   20218.13870399 -.00000992  00000-0  14589-2 0  9996
2 12156  62.0047 266.3322 7215618 253.1954  22.3159  2.05712574207508
UTC
Height (km)
Latitude
Longitude
Inclination
Orbital Period
UTC large
Height (km)
Speed (km/s)
/
Latitude / Longitude
Inclination (degrees)
Orbital Period (minutes)
Azimuth
Elevation
Range (km)
Doppler Factor
iOS Compass Heading
iOS Angle

Next 30 passes for location: Hong Kong

Rise time Rise Azimuth (degrees) Set time Set Azimuth (degrees) Duration Max altitude (degrees)

No matching passes for this satellites